Location: Ar Ranvel
(48.3000°N, 4.8833°W)
Time: 04:02:23
(UTC+00:00)

COSMOS 2251 DEB - Pass Details

Date: 29 January 2022
Orbit: 755 x 1085 km, 74.1° (Epoch: 18 May)

Event Time Altitude Azimuth Distance (km) Brightness Sun altitude
Rises 17:41:28 0° 340° (NNW) 3,773 ? -5.0°
Reaches altitude 10° 17:44:37 10° 355° (N) 2,862 ? -5.5°
Maximum altitude 17:49:55 24° 47° (NE) 2,072 ? -6.3°
Drops below altitude 10° 17:55:20 10° 98° (E) 2,932 ? -7.2°
Sets 17:58:35 0° 112° (ESE) 3,886 ? -7.7°
